Flag for U.S.A. Weather past 2 weeks in Lexington-Fayette, Kentucky, U.S.A.

Now
86 °F

Passing clouds.


Feels Like: 86 °F
Forecast: 59 / 84 °F
Wind: 3 mph from North

Location: Blue Grass Airport

Current Time: Jul 31, 2015 at 4:11:33 PM

Latest Report: Jul 31, 2015 at 2:54 PM


Visibility: 10 mi

Pressure: 30.02 "Hg

Humidity: 43%

Dew point: 61 °F

Location of Lexington-FayetteLocation

Historic Weather in Lexington-Fayette — Graph

°F

Lexington-Fayette temperature yesterday

Maximum temperature yesterday: 84 °F (at 2:54 PM)
Minimum temperature yesterday: 69 °F (at 6:54 AM)
Average temperature yesterday: 76 °F

Past Weeks' High & Low Weather Summary

 TemperatureHumidityPressure
High90 °F (Jul 18, 2:54 PM)97% (Jul 18, 1:54 AM)30.08 "Hg (Jul 18, 1:54 AM)
Low62 °F (Jul 24, 6:54 AM)43% (Jul 31, 2:54 PM)29.74 "Hg (Jul 21, 4:54 AM)
Average77 °F74%29.96 "Hg
* Reported Jul 16 2:54 PM — Jul 31 2:54 PM, Lexington-Fayette, Weather by CustomWeather, © 2015

Note: Actual official high and low records may vary slightly from our data, if they occured in-between our weather recording intervals... More about our weather records

Advertising

Lexington-Fayette weather history for previous 24 hours

 ConditionsComfort  
Time TempWeatherWind HumidityBarometerVisibility
2:54 PM
Fri, Jul 31
86 °FPassing clouds.3 mph43%30.02 "Hg10 mi
1:54 PM83 °FScattered clouds.7 mph50%30.04 "Hg10 mi
12:54 PM84 °FSunny.3 mph46%30.05 "Hg10 mi
11:54 AM83 °FSunny.3 mph50%30.07 "Hg10 mi
10:54 AM80 °FSunny.6 mph58%30.07 "Hg10 mi
9:54 AM76 °FSunny.5 mph67%30.07 "Hg10 mi
8:54 AM71 °FSunny.3 mph76%30.07 "Hg10 mi
7:54 AM66 °FSunny.No wind87%30.07 "Hg10 mi
6:54 AM62 °FClear.No wind90%30.06 "Hg10 mi
5:54 AM62 °FClear.No wind90%30.04 "Hg10 mi
4:54 AM65 °FClear.No wind85%30.04 "Hg10 mi
3:54 AM65 °FClear.3 mph85%30.04 "Hg10 mi
2:54 AM65 °FClear.No wind87%30.05 "Hg10 mi
1:54 AM67 °FClear.No wind81%30.06 "Hg10 mi
12:54 AM69 °FClear.No wind76%30.06 "Hg10 mi
11:54 PM
Thu, Jul 30
69 °FClear.No wind76%30.07 "Hg10 mi
10:54 PM71 °FClear.No wind71%30.06 "Hg10 mi
9:54 PM73 °FClear.No wind64%30.05 "Hg10 mi
8:54 PM76 °FSunny.3 mph56%30.03 "Hg10 mi
7:54 PM79 °FSunny.7 mph50%30.03 "Hg10 mi
6:54 PM82 °FSunny.12 mph46%30.02 "Hg10 mi
5:54 PM83 °FSunny.10 mph44%30.03 "Hg10 mi
4:54 PM84 °FSunny.12 mph46%30.03 "Hg10 mi
Weather by CustomWeather, © 2015

See weather overviewHow to use our weather pages